SCP
0 0 0 0 0 0 0 0 0 0 0 0 0 0 0 0 -0 -0 0 0 0 0 0 0 0 0 0 0 0 0 0 0 0 0 0 0 0 0 0 0 0 0 0 0 0 0 0
0 0 0 0 0 0 0 0 0 0 0 -0 0 0 0 0 -0 -0 0 0 0 0 0 0 0 0 0 0 0 0 0 0 0 0 0 0 0 0 0 0 0 0 0 0 0 0 0
0 0 0 0 0 0 0 0 0 -0 0 0 0 0 0 0 -0 -0 0 0 0 0 0 0 0 0 0 0 0 0 0 0 0 0 0 0 0 0 0 0 0 0 0 0 0 0 0
0 0 0 0 0 0 0 0 0 -0 -0 0 0 0 -0 0 0 -0 0 0 0 0 0 0 0 0 0 0 0 0 0 0 0 0 0 0 0 0 0 0 0 0 0 0 0 0 0
0 0 0 0 0 0 0 0 -0 -0 -0 0 0 -0 0 0 -0 0 0 0 0 0 0 0 0 0 0 0 0 0 0 0 0 0 0 0 0 0 0 0 0 0 0 0 0 0 0
0 0 0 0 0 0 0 0 -0 -0 -0 0 0 0 -0 0 -0 0 0 0 0 0 0 0 0 0 0 0 0 0 0 0 0 0 0 0 0 0 0 0 0 0 0 0 0 0 0
0 0 0 0 0 0 0 -0 -0 -0 -0 0 0 0 -0 0 -0 -0 -0 0 0 0 0 0 0 0 0 0 0 0 0 0 0 0 0 0 0 0 0 0 0 0 0 0 0 0 0
0 0 0 0 0 0 -0 -0 -0 -0 -0 0 0 0 0 0 -0 -0 -0 0 0 0 0 0 0 0 0 0 0 0 0 0 0 0 0 0 0 0 0 0 0 0 0 0 0 0 0
0 0 0 0 0 -0 -0 -0 -0 0 -0 0 0 -0 0 0 -0 -0 -0 0 0 0 0 0 0 0 0 0 0 0 0 0 0 0 0 0 0 0 0 0 0 0 0 0 0 0 0
0 0 0 0 -0 -0 -0 -0 -0 0 -0 0 -0 0 0 0 -0 -0 0 0 0 0 0 0 0 0 0 0 0 0 0 0 0 0 0 0 0 0 0 0 0 0 0 0 0 0 0
0 0 0 -0 -0 0 0 0 -0 -0 -0 -0 0 0 0 -0 -0 -0 0 0 0 0 0 0 0 0 0 0 0 0 0 0 0 0 0 0 0 0 0 0 0 0 0 0 0 0 0
0 0 0 -0 -0 0 0 -0 -0 0 -0 0 0 0 0 0 0 -0 -0 0 0 0 0 0 0 0 0 0 0 0 0 0 0 0 0 0 0 0 0 0 0 0 0 0 0 0 0
0 0 -0 -0 -0 0 -0 0 0 -0 -0 0 0 0 0 0 -0 0 -0 0 0 0 0 0 0 0 0 0 0 0 0 0 0 0 0 0 0 0 0 0 0 0 0 0 0 0 0
0 0 -0 -0 -0 -0 -0 -0 -0 -0 -0 0 0 0 0 0 0 0 -0 0 0 0 0 0 0 0 0 0 0 0 0 0 0 0 0 0 0 0 0 0 0 0 0 0 0 0 0
0 -0 -0 -0 -0 -0 -0 -0 -0 -0 -0 0 0 0 0 0 0 0 0 0 0 0 0 0 0 0 0 0 0 0 0 0 0 0 0 0 0 0 0 0 0 0 0 0 0 0 0
0 -0 -0 -0 -0 -0 -0 -0 -0 -0 0 0 0 0 0 0 0 0 0 0 0 0 0 0 0 0 0 0 0 0 0 0 0 0 0 0 0 0 0 0 0 0 0 0 0 0 0
-0 -0 -0 -0 -0 -0 -0 -0 -0 -0 -0 0 0 0 0 0 0 0 0 0 0 0 0 0 0 0 0 0 0 0 0 0 0 0 0 0 0 0 0 0 0 0 0 0 0 0 0
-0 -0 -0 -0 -0 -0 -0 -0 -0 0 -0 -0 0 0 0 0 0 0 0 0 0 0 0 0 0 0 0 0 0 0 0 0 0 0 0 0 0 0 0 0 0 0 0 0 0 0 0
0 0 -0 -0 -0 -0 -0 0 -0 0 -0 0 -0 0 0 0 0 0 0 -0 -0 0 0 0 0 0 0 0 0 0 0 0 0 0 0 0 0 0 0 0 0 0 0 0 0 0 0
0 0 -0 -0 -0 -0 -0 0 -0 -0 -0 0 -0 0 0 0 0 0 0 0 -0 -0 0 0 0 0 0 0 0 0 0 0 0 0 0 0 0 0 0 0 0 0 0 0 0 0 0
0 0 0 -0 -0 -0 -0 0 -0 0 -0 -0 -0 -0 0 0 0 0 0 0 0 0 -0 0 0 0 0 0 0 0 0 0 0 0 0 0 0 0 0 0 0 0 0 0 0 0 0
0 0 0 0 -0 -0 -0 0 -0 -0 -0 0 -0 -0 0 0 0 0 0 0 0 -0 -0 0 0 0 0 0 0 0 0 0 0 0 0 0 0 0 0 0 0 0 0 0 0 0 0
0 0 0 0 0 0 0 0 0 -0 -0 -0 -0 0 0 0 0 0 0 0 0 0 0 0 0 0 0 0 0 0 0 0 0 0 0 0 0 0 0 0 0 0 0 0 0 0 0
0 0 0 0 0 0 0 0 0 0 0 0 -0 0 -0 -0 0 0 0 0 0 0 0 0 0 0 0 0 0 0 0 0 0 0 0 0 0 0 0 0 0 0 0 0 0 0 0
0 0 0 0 0 0 0 0 0 0 -0 0 -0 -0 -0 -0 0 0 0 0 0 0 0 0 0 0 0 0 0 0 0 0 0 0 0 0 0 0 0 0 0 0 0 0 0 0 0
0 0 0 0 0 0 0 0 0 0 -0 0 -0 0 0 -0 -0 0 0 0 0 0 0 0 0 0 0 0 0 0 0 0 0 0 0 0 0 0 0 0 0 0 0 0 0 0 0
0 0 0 0 0 0 0 0 0 0 -0 0 -0 0 -0 -0 -0 -0 -0 0 0 0 0 0 0 0 0 0 0 0 0 0 0 0 0 0 0 0 0 0 0 0 0 0 0 0 0
0 0 0 0 0 0 0 0 0 0 0 0 -0 0 -0 -0 -0 -0 -0 -0 0 0 0 0 0 0 0 0 0 0 0 0 0 0 0 0 0 0 0 0 0 0 0 0 0 0 0
0 0 0 0 0 0 0 0 0 0 0 0 -0 0 0 0 -0 0 -0 -0 -0 0 0 0 0 0 0 0 0 0 0 0 0 0 0 0 0 0 0 0 0 0 0 0 0 0 0
Wind_Speed_500mb
28 33 38 41 43 47 47 50 52 48 44 45 44 42 39 39 39 49 30 43 40 49 54 52 46 58 13 8 10 10 25 59 64 53 37 29 20 18 10 5 9 3 5 8 11 23 34
31 35 39 43 44 46 50 49 52 49 45 45 42 41 41 38 37 44 40 35 33 39 60 62 59 51 21 3 5 12 18 50 52 52 38 28 15 6 22 7 11 22 15 13 7 15 12
33 37 42 44 45 46 51 54 50 48 44 42 40 38 39 39 34 46 41 30 36 36 62 61 52 61 48 17 11 14 13 22 49 49 48 28 16 4 21 14 20 24 9 11 10 5 7
38 40 43 43 43 49 54 55 49 47 43 39 38 37 38 33 31 39 35 27 28 33 54 68 54 47 29 40 16 8 13 10 30 46 46 39 26 33 35 26 10 10 9 9 4 1 3
38 41 42 42 46 48 53 56 49 45 43 37 35 33 38 31 26 27 31 36 29 29 59 59 73 44 19 41 38 20 12 7 23 29 45 46 16 39 23 14 8 10 11 8 1 2 4
40 43 42 44 47 50 51 54 44 42 40 34 32 30 33 32 30 27 33 37 23 27 38 70 43 18 24 53 62 28 11 9 12 17 22 25 6 8 3 11 32 13 12 7 12 10 6
47 47 43 46 49 52 52 52 47 40 35 30 28 26 26 30 26 24 32 32 6 4 45 11 39 6 35 41 59 38 23 16 11 20 13 11 5 14 10 8 14 16 12 11 2 2 5
46 45 46 48 51 54 55 52 50 41 32 26 23 22 21 19 25 21 28 17 18 8 23 18 42 21 43 44 25 54 38 17 10 10 14 10 23 12 10 6 14 12 14 7 4 8 8
43 44 51 53 55 56 57 59 50 39 32 22 18 17 17 13 21 17 24 25 18 17 11 11 22 21 27 41 17 55 63 22 1 10 14 22 4 9 6 9 15 5 16 10 11 8 5
41 48 54 54 54 59 63 53 43 30 25 17 16 13 9 10 3 11 20 19 9 5 6 3 7 7 16 27 12 34 43 35 6 14 16 3 6 15 4 7 9 9 8 13 19 11 8
40 48 52 52 53 60 56 51 33 17 18 19 17 10 5 2 8 6 18 21 20 5 9 14 4 13 11 13 35 12 25 19 17 12 7 8 15 25 14 7 6 6 12 12 9 11 8
39 47 46 47 51 50 52 41 8 16 25 24 17 11 4 5 9 15 15 9 11 3 5 6 8 11 10 8 5 16 10 18 15 10 15 5 2 7 11 7 7 21 14 16 10 7 2
36 43 40 41 42 45 45 32 25 31 33 28 18 12 7 4 10 7 9 12 3 1 2 10 7 14 13 7 9 7 10 16 11 16 10 6 7 2 7 22 7 4 11 6 4 4 9
35 36 34 33 32 33 34 27 28 33 30 27 23 13 15 18 4 12 10 6 7 5 2 3 12 22 9 11 7 7 14 10 7 9 9 9 6 7 3 12 18 14 13 11 14 7 6
27 27 27 26 24 22 24 23 22 24 22 26 19 27 28 19 19 11 12 7 6 9 8 1 21 8 7 8 10 9 10 13 6 11 13 10 2 5 6 5 7 10 9 9 14 4 5
22 20 20 19 18 15 16 16 14 16 20 19 15 23 24 15 16 12 8 8 7 11 12 8 5 7 7 15 9 13 17 11 8 7 4 8 11 4 2 4 9 7 16 8 6 8 6
16 16 16 13 12 11 14 12 9 16 17 13 4 10 11 3 10 9 5 6 7 17 21 12 5 5 7 10 9 13 26 4 15 14 11 4 7 2 7 7 10 6 8 8 8 7 10
7 10 13 10 8 8 10 12 10 13 12 2 6 7 11 6 10 6 5 5 6 9 12 8 5 8 5 11 8 12 20 8 36 23 16 10 8 7 3 5 6 2 10 10 13 10 2
4 6 11 10 6 5 9 13 13 14 8 10 7 6 8 11 6 5 9 3 5 5 7 10 14 10 10 5 6 7 13 12 36 33 16 13 3 9 6 10 7 7 7 8 10 6 13
4 3 8 9 5 4 8 12 17 13 1 6 4 5 7 11 10 8 2 6 5 8 6 9 5 11 9 11 11 5 7 4 36 13 15 15 7 10 15 6 14 11 12 10 10 8 10
7 5 3 6 6 2 5 13 18 17 5 1 8 2 2 0 6 4 4 3 4 6 5 8 5 4 4 10 8 6 6 4 8 16 11 10 7 3 3 2 6 11 24 27 30 24 21
10 7 6 1 3 4 4 13 19 16 16 4 2 6 5 4 4 5 6 3 3 3 1 4 2 11 5 2 6 5 3 5 7 8 10 7 6 6 4 5 9 6 20 36 40 26 22
13 10 8 4 1 1 3 12 21 17 17 9 2 8 3 4 4 6 4 3 5 2 2 1 4 4 4 9 8 7 15 12 9 4 11 13 10 6 7 6 6 13 27 24 18 28 26
16 14 13 7 5 3 3 5 18 21 14 20 6 6 4 2 1 6 4 3 2 3 4 7 1 4 4 21 20 14 13 4 7 11 9 10 12 5 5 2 8 9 4 20 36 26 44
18 18 18 12 8 7 5 8 9 13 15 17 18 8 6 1 4 6 5 5 11 10 1 5 2 1 21 6 6 9 7 6 6 8 8 10 9 4 9 6 13 11 10 15 20 30 31
21 22 20 18 13 11 9 5 7 16 19 24 22 16 8 6 10 2 3 8 5 2 10 8 11 8 14 4 6 1 4 2 5 7 0 13 11 6 5 10 16 10 2 16 13 17 10
30 28 24 22 18 15 13 10 4 6 18 17 15 23 11 5 17 11 4 6 9 5 3 7 2 5 9 4 3 4 7 5 7 8 6 6 9 18 8 7 15 11 2 13 11 9 2
46 34 29 27 22 20 17 15 12 8 14 16 16 18 21 14 27 22 15 19 8 7 5 2 5 2 3 5 4 6 6 8 1 5 8 10 8 6 6 3 15 16 8 15 8 7 5
43 45 37 33 28 24 21 20 18 16 16 17 16 22 27 20 14 15 22 45 51 37 14 14 5 5 16 5 2 3 3 4 7 5 7 7 7 6 10 9 5 16 2 21 2 1 0
Wind_Direction_500mb
322 316 314 315 315 313 312 309 305 303 304 301 300 302 302 296 308 295 297 259 273 210 211 217 199 206 208 67 165 159 172 182 199 203 197 168 133 213 246 209 72 32 168 105 127 135 136
314 314 312 313 314 315 317 314 311 310 305 300 294 306 290 304 294 307 299 266 271 213 211 215 206 204 226 52 131 73 150 183 192 193 209 185 164 135 320 281 198 206 133 109 87 104 114
310 312 312 313 316 320 318 317 310 307 305 299 299 299 298 295 299 304 279 278 256 229 202 198 203 194 187 186 113 51 99 157 185 194 213 197 210 271 197 228 179 139 110 53 30 27 101
315 313 316 318 323 321 317 318 316 311 307 301 301 291 301 291 303 305 278 285 266 228 206 199 201 196 202 202 232 284 356 128 172 191 200 200 169 248 246 165 81 85 51 138 301 141 39
322 320 318 324 318 317 317 316 315 309 304 297 293 288 300 292 301 300 291 284 284 245 194 184 174 175 179 179 189 239 289 141 152 187 194 180 183 214 203 130 97 25 168 143 108 208 103
328 324 322 321 320 319 317 315 318 312 305 294 288 287 297 293 308 312 284 284 274 195 169 181 186 151 191 188 198 217 231 183 124 179 182 170 231 205 202 175 183 156 125 125 149 215 123
329 327 326 324 322 320 317 317 318 312 303 292 282 280 293 291 303 302 291 317 171 207 166 148 168 141 161 163 191 182 188 198 149 157 157 133 130 224 190 154 141 125 114 124 64 54 155
331 331 331 324 324 322 320 319 315 307 298 279 269 271 290 292 302 299 299 311 291 158 75 100 142 97 148 150 139 176 173 192 166 164 135 117 215 236 157 123 119 113 123 109 63 24 81
334 334 333 331 327 326 324 317 310 300 288 264 241 251 279 292 308 300 297 293 319 124 68 40 93 117 155 149 133 160 166 173 76 132 186 183 303 193 166 115 112 83 146 166 146 124 59
334 331 334 333 334 332 325 318 306 291 267 231 206 232 258 292 298 275 284 271 322 98 90 118 75 151 148 132 67 159 164 150 146 166 147 136 15 149 8 154 125 135 159 122 131 111 185
328 328 335 338 343 338 333 324 300 259 216 186 176 204 221 225 337 317 294 290 303 284 132 164 137 137 118 70 128 131 145 159 146 121 142 147 163 155 216 206 158 118 99 108 103 90 96
324 332 339 346 353 350 355 354 22 153 155 152 161 159 144 176 344 336 320 246 302 50 122 175 124 143 96 75 89 114 101 92 122 59 32 74 155 135 173 48 103 143 90 53 57 80 331
319 336 343 353 2 6 17 33 87 120 131 137 138 140 119 133 355 62 17 349 58 38 314 146 151 144 108 122 104 105 154 147 152 143 161 356 340 293 157 92 33 80 119 35 22 354 220
324 338 348 1 8 20 39 59 92 111 123 127 134 118 101 75 100 141 44 13 54 301 121 199 120 128 142 148 79 109 132 167 184 106 114 147 180 194 167 141 169 173 163 154 177 201 195
335 345 355 5 13 36 58 75 93 107 118 130 125 100 74 49 41 58 18 45 7 356 333 105 127 135 137 155 111 122 201 169 196 204 132 139 327 350 60 80 166 186 176 127 103 37 68
335 349 4 7 21 70 75 77 83 102 129 134 133 95 73 64 47 41 65 27 26 352 345 339 128 203 150 148 125 163 171 183 183 218 82 149 112 341 68 141 41 151 147 80 15 129 257
337 351 13 12 31 86 79 93 105 136 145 141 4 71 33 100 22 56 94 24 6 2 26 10 23 139 159 132 150 175 176 153 183 172 108 107 69 89 72 290 162 121 146 70 119 147 175
324 5 15 17 33 89 109 111 147 164 162 211 26 70 28 9 50 27 34 39 36 6 348 34 42 3 111 151 145 166 191 184 183 145 132 172 119 118 148 345 306 355 167 160 191 202 205
280 357 9 12 32 91 144 147 158 173 202 2 52 56 44 11 74 6 328 325 74 36 16 14 13 15 357 79 161 128 170 229 176 166 163 171 106 97 47 339 344 224 185 129 110 84 193
246 303 15 19 32 68 158 171 169 165 72 7 26 37 30 59 81 134 65 336 46 26 47 54 352 28 9 36 5 136 134 3 183 175 169 125 153 167 189 182 137 190 180 170 147 184 155
248 258 312 19 29 78 162 180 181 176 203 357 20 58 81 2 347 36 29 352 16 9 35 33 1 352 69 24 20 26 136 93 34 188 128 108 196 160 44 127 168 179 188 190 207 197 198
246 253 255 288 13 23 207 185 187 198 218 244 63 111 85 57 67 81 2 296 184 312 60 328 131 333 317 135 162 313 313 135 168 238 143 136 171 127 348 36 183 251 222 212 213 217 239
231 242 252 216 246 32 25 184 193 196 209 211 148 97 39 15 359 105 243 247 300 0 291 356 326 318 311 291 179 157 121 335 357 247 181 142 125 93 246 353 100 296 227 209 224 217 209
231 233 242 222 217 231 188 170 208 212 205 216 172 130 75 257 162 217 293 185 300 265 336 333 78 331 319 125 107 99 82 92 293 314 314 136 120 84 150 50 249 266 329 207 204 219 221
228 224 236 237 218 228 230 203 215 227 213 199 200 178 129 239 162 291 242 274 326 343 356 291 233 317 166 12 29 10 351 25 348 263 264 186 125 125 155 219 293 278 194 160 181 243 224
218 228 229 236 234 232 239 253 213 216 206 206 213 209 169 131 240 197 164 199 195 316 341 245 254 254 186 65 69 183 215 210 276 302 87 206 171 165 139 181 218 249 310 149 125 276 225
215 217 228 229 227 227 239 243 233 202 209 206 210 217 221 199 252 215 182 208 169 162 179 303 247 165 195 118 136 188 259 173 214 195 142 168 155 190 163 229 284 242 159 150 118 231 174
221 219 221 228 231 230 228 234 228 205 205 204 184 195 221 245 254 248 247 225 208 193 159 180 88 204 86 166 152 218 192 217 182 226 181 164 176 161 106 150 263 164 115 170 223 172 172
222 220 222 223 227 232 231 232 225 216 212 205 208 204 220 233 260 260 250 245 248 250 253 218 263 183 181 115 225 51 222 194 163 242 325 190 189 172 189 217 315 221 348 221 312 133 184
Wind_Speed_850mb
28 33 38 41 43 47 47 50 52 48 44 45 44 42 39 39 39 49 30 43 40 49 54 52 46 58 13 8 10 10 25 59 64 53 37 29 20 18 10 5 9 3 5 8 11 23 34
31 35 39 43 44 46 50 49 52 49 45 45 42 41 41 38 37 44 40 35 33 39 60 62 59 51 21 3 5 12 18 50 52 52 38 28 15 6 22 7 11 22 15 13 7 15 12
33 37 42 44 45 46 51 54 50 48 44 42 40 38 39 39 34 46 41 30 36 36 62 61 52 61 48 17 11 14 13 22 49 49 48 28 16 4 21 14 20 24 9 11 10 5 7
38 40 43 43 43 49 54 55 49 47 43 39 38 37 38 33 31 39 35 27 28 33 54 68 54 47 29 40 16 8 13 10 30 46 46 39 26 33 35 26 10 10 9 9 4 1 3
38 41 42 42 46 48 53 56 49 45 43 37 35 33 38 31 26 27 31 36 29 29 59 59 73 44 19 41 38 20 12 7 23 29 45 46 16 39 23 14 8 10 11 8 1 2 4
40 43 42 44 47 50 51 54 44 42 40 34 32 30 33 32 30 27 33 37 23 27 38 70 43 18 24 53 62 28 11 9 12 17 22 25 6 8 3 11 32 13 12 7 12 10 6
47 47 43 46 49 52 52 52 47 40 35 30 28 26 26 30 26 24 32 32 6 4 45 11 39 6 35 41 59 38 23 16 11 20 13 11 5 14 10 8 14 16 12 11 2 2 5
46 45 46 48 51 54 55 52 50 41 32 26 23 22 21 19 25 21 28 17 18 8 23 18 42 21 43 44 25 54 38 17 10 10 14 10 23 12 10 6 14 12 14 7 4 8 8
43 44 51 53 55 56 57 59 50 39 32 22 18 17 17 13 21 17 24 25 18 17 11 11 22 21 27 41 17 55 63 22 1 10 14 22 4 9 6 9 15 5 16 10 11 8 5
41 48 54 54 54 59 63 53 43 30 25 17 16 13 9 10 3 11 20 19 9 5 6 3 7 7 16 27 12 34 43 35 6 14 16 3 6 15 4 7 9 9 8 13 19 11 8
40 48 52 52 53 60 56 51 33 17 18 19 17 10 5 2 8 6 18 21 20 5 9 14 4 13 11 13 35 12 25 19 17 12 7 8 15 25 14 7 6 6 12 12 9 11 8
39 47 46 47 51 50 52 41 8 16 25 24 17 11 4 5 9 15 15 9 11 3 5 6 8 11 10 8 5 16 10 18 15 10 15 5 2 7 11 7 7 21 14 16 10 7 2
36 43 40 41 42 45 45 32 25 31 33 28 18 12 7 4 10 7 9 12 3 1 2 10 7 14 13 7 9 7 10 16 11 16 10 6 7 2 7 22 7 4 11 6 4 4 9
35 36 34 33 32 33 34 27 28 33 30 27 23 13 15 18 4 12 10 6 7 5 2 3 12 22 9 11 7 7 14 10 7 9 9 9 6 7 3 12 18 14 13 11 14 7 6
27 27 27 26 24 22 24 23 22 24 22 26 19 27 28 19 19 11 12 7 6 9 8 1 21 8 7 8 10 9 10 13 6 11 13 10 2 5 6 5 7 10 9 9 14 4 5
22 20 20 19 18 15 16 16 14 16 20 19 15 23 24 15 16 12 8 8 7 11 12 8 5 7 7 15 9 13 17 11 8 7 4 8 11 4 2 4 9 7 16 8 6 8 6
16 16 16 13 12 11 14 12 9 16 17 13 4 10 11 3 10 9 5 6 7 17 21 12 5 5 7 10 9 13 26 4 15 14 11 4 7 2 7 7 10 6 8 8 8 7 10
7 10 13 10 8 8 10 12 10 13 12 2 6 7 11 6 10 6 5 5 6 9 12 8 5 8 5 11 8 12 20 8 36 23 16 10 8 7 3 5 6 2 10 10 13 10 2
4 6 11 10 6 5 9 13 13 14 8 10 7 6 8 11 6 5 9 3 5 5 7 10 14 10 10 5 6 7 13 12 36 33 16 13 3 9 6 10 7 7 7 8 10 6 13
4 3 8 9 5 4 8 12 17 13 1 6 4 5 7 11 10 8 2 6 5 8 6 9 5 11 9 11 11 5 7 4 36 13 15 15 7 10 15 6 14 11 12 10 10 8 10
7 5 3 6 6 2 5 13 18 17 5 1 8 2 2 0 6 4 4 3 4 6 5 8 5 4 4 10 8 6 6 4 8 16 11 10 7 3 3 2 6 11 24 27 30 24 21
10 7 6 1 3 4 4 13 19 16 16 4 2 6 5 4 4 5 6 3 3 3 1 4 2 11 5 2 6 5 3 5 7 8 10 7 6 6 4 5 9 6 20 36 40 26 22
13 10 8 4 1 1 3 12 21 17 17 9 2 8 3 4 4 6 4 3 5 2 2 1 4 4 4 9 8 7 15 12 9 4 11 13 10 6 7 6 6 13 27 24 18 28 26
16 14 13 7 5 3 3 5 18 21 14 20 6 6 4 2 1 6 4 3 2 3 4 7 1 4 4 21 20 14 13 4 7 11 9 10 12 5 5 2 8 9 4 20 36 26 44
18 18 18 12 8 7 5 8 9 13 15 17 18 8 6 1 4 6 5 5 11 10 1 5 2 1 21 6 6 9 7 6 6 8 8 10 9 4 9 6 13 11 10 15 20 30 31
21 22 20 18 13 11 9 5 7 16 19 24 22 16 8 6 10 2 3 8 5 2 10 8 11 8 14 4 6 1 4 2 5 7 0 13 11 6 5 10 16 10 2 16 13 17 10
30 28 24 22 18 15 13 10 4 6 18 17 15 23 11 5 17 11 4 6 9 5 3 7 2 5 9 4 3 4 7 5 7 8 6 6 9 18 8 7 15 11 2 13 11 9 2
46 34 29 27 22 20 17 15 12 8 14 16 16 18 21 14 27 22 15 19 8 7 5 2 5 2 3 5 4 6 6 8 1 5 8 10 8 6 6 3 15 16 8 15 8 7 5
43 45 37 33 28 24 21 20 18 16 16 17 16 22 27 20 14 15 22 45 51 37 14 14 5 5 16 5 2 3 3 4 7 5 7 7 7 6 10 9 5 16 2 21 2 1 0
Wind_Direction_850mb
322 316 314 315 315 313 312 309 305 303 304 301 300 302 302 296 308 295 297 259 273 210 211 217 199 206 208 67 165 159 172 182 199 203 197 168 133 213 246 209 72 32 168 105 127 135 136
314 314 312 313 314 315 317 314 311 310 305 300 294 306 290 304 294 307 299 266 271 213 211 215 206 204 226 52 131 73 150 183 192 193 209 185 164 135 320 281 198 206 133 109 87 104 114
310 312 312 313 316 320 318 317 310 307 305 299 299 299 298 295 299 304 279 278 256 229 202 198 203 194 187 186 113 51 99 157 185 194 213 197 210 271 197 228 179 139 110 53 30 27 101
315 313 316 318 323 321 317 318 316 311 307 301 301 291 301 291 303 305 278 285 266 228 206 199 201 196 202 202 232 284 356 128 172 191 200 200 169 248 246 165 81 85 51 138 301 141 39
322 320 318 324 318 317 317 316 315 309 304 297 293 288 300 292 301 300 291 284 284 245 194 184 174 175 179 179 189 239 289 141 152 187 194 180 183 214 203 130 97 25 168 143 108 208 103
328 324 322 321 320 319 317 315 318 312 305 294 288 287 297 293 308 312 284 284 274 195 169 181 186 151 191 188 198 217 231 183 124 179 182 170 231 205 202 175 183 156 125 125 149 215 123
329 327 326 324 322 320 317 317 318 312 303 292 282 280 293 291 303 302 291 317 171 207 166 148 168 141 161 163 191 182 188 198 149 157 157 133 130 224 190 154 141 125 114 124 64 54 155
331 331 331 324 324 322 320 319 315 307 298 279 269 271 290 292 302 299 299 311 291 158 75 100 142 97 148 150 139 176 173 192 166 164 135 117 215 236 157 123 119 113 123 109 63 24 81
334 334 333 331 327 326 324 317 310 300 288 264 241 251 279 292 308 300 297 293 319 124 68 40 93 117 155 149 133 160 166 173 76 132 186 183 303 193 166 115 112 83 146 166 146 124 59
334 331 334 333 334 332 325 318 306 291 267 231 206 232 258 292 298 275 284 271 322 98 90 118 75 151 148 132 67 159 164 150 146 166 147 136 15 149 8 154 125 135 159 122 131 111 185
328 328 335 338 343 338 333 324 300 259 216 186 176 204 221 225 337 317 294 290 303 284 132 164 137 137 118 70 128 131 145 159 146 121 142 147 163 155 216 206 158 118 99 108 103 90 96
324 332 339 346 353 350 355 354 22 153 155 152 161 159 144 176 344 336 320 246 302 50 122 175 124 143 96 75 89 114 101 92 122 59 32 74 155 135 173 48 103 143 90 53 57 80 331
319 336 343 353 2 6 17 33 87 120 131 137 138 140 119 133 355 62 17 349 58 38 314 146 151 144 108 122 104 105 154 147 152 143 161 356 340 293 157 92 33 80 119 35 22 354 220
324 338 348 1 8 20 39 59 92 111 123 127 134 118 101 75 100 141 44 13 54 301 121 199 120 128 142 148 79 109 132 167 184 106 114 147 180 194 167 141 169 173 163 154 177 201 195
335 345 355 5 13 36 58 75 93 107 118 130 125 100 74 49 41 58 18 45 7 356 333 105 127 135 137 155 111 122 201 169 196 204 132 139 327 350 60 80 166 186 176 127 103 37 68
335 349 4 7 21 70 75 77 83 102 129 134 133 95 73 64 47 41 65 27 26 352 345 339 128 203 150 148 125 163 171 183 183 218 82 149 112 341 68 141 41 151 147 80 15 129 257
337 351 13 12 31 86 79 93 105 136 145 141 4 71 33 100 22 56 94 24 6 2 26 10 23 139 159 132 150 175 176 153 183 172 108 107 69 89 72 290 162 121 146 70 119 147 175
324 5 15 17 33 89 109 111 147 164 162 211 26 70 28 9 50 27 34 39 36 6 348 34 42 3 111 151 145 166 191 184 183 145 132 172 119 118 148 345 306 355 167 160 191 202 205
280 357 9 12 32 91 144 147 158 173 202 2 52 56 44 11 74 6 328 325 74 36 16 14 13 15 357 79 161 128 170 229 176 166 163 171 106 97 47 339 344 224 185 129 110 84 193
246 303 15 19 32 68 158 171 169 165 72 7 26 37 30 59 81 134 65 336 46 26 47 54 352 28 9 36 5 136 134 3 183 175 169 125 153 167 189 182 137 190 180 170 147 184 155
248 258 312 19 29 78 162 180 181 176 203 357 20 58 81 2 347 36 29 352 16 9 35 33 1 352 69 24 20 26 136 93 34 188 128 108 196 160 44 127 168 179 188 190 207 197 198
246 253 255 288 13 23 207 185 187 198 218 244 63 111 85 57 67 81 2 296 184 312 60 328 131 333 317 135 162 313 313 135 168 238 143 136 171 127 348 36 183 251 222 212 213 217 239
231 242 252 216 246 32 25 184 193 196 209 211 148 97 39 15 359 105 243 247 300 0 291 356 326 318 311 291 179 157 121 335 357 247 181 142 125 93 246 353 100 296 227 209 224 217 209
231 233 242 222 217 231 188 170 208 212 205 216 172 130 75 257 162 217 293 185 300 265 336 333 78 331 319 125 107 99 82 92 293 314 314 136 120 84 150 50 249 266 329 207 204 219 221
228 224 236 237 218 228 230 203 215 227 213 199 200 178 129 239 162 291 242 274 326 343 356 291 233 317 166 12 29 10 351 25 348 263 264 186 125 125 155 219 293 278 194 160 181 243 224
218 228 229 236 234 232 239 253 213 216 206 206 213 209 169 131 240 197 164 199 195 316 341 245 254 254 186 65 69 183 215 210 276 302 87 206 171 165 139 181 218 249 310 149 125 276 225
215 217 228 229 227 227 239 243 233 202 209 206 210 217 221 199 252 215 182 208 169 162 179 303 247 165 195 118 136 188 259 173 214 195 142 168 155 190 163 229 284 242 159 150 118 231 174
221 219 221 228 231 230 228 234 228 205 205 204 184 195 221 245 254 248 247 225 208 193 159 180 88 204 86 166 152 218 192 217 182 226 181 164 176 161 106 150 263 164 115 170 223 172 172
222 220 222 223 227 232 231 232 225 216 212 205 208 204 220 233 260 260 250 245 248 250 253 218 263 183 181 115 225 51 222 194 163 242 325 190 189 172 189 217 315 221 348 221 312 133 184